LiveATC.Net - Listen to live air traffic control over the Internet!
Airport/ARTCC Code
Frequency Search
(e.g., 124.400, 128.75)
Site-wide search
 


Browse Feeds
Top 50 Feeds
HF Oceanic Feeds
Coverage Map
Bad Weather Areas

LiveATC FAQ

Increase Coverage

Contact LiveATC.net
Press Inquiries

LiveATC on iPhone
LiveATC on Android

LiveATC Mobile
(Mobile browser)

ATC Audio Archives
Interesting Recordings

LiveATC Forums

Home Page
About LiveATC.net


Terms of Use
Privacy Policy

AIRMETs/SIGMETs

FAA Airport Status
NAS Status
Arrival Demand


Server Software By:
Icecast.org
Liquidsoap

Select an area of interest:
U.S. Feeds: Class B Airports | Class C Airports | Class D/Other Airports | ARTCC (Centers)
International Feeds: Canada | Europe | Oceania | Asia | South America | North/Central America | Africa
Misc Feeds: HF Feeds
Search by ICAO/IATA airport code:   (e.g., kbos, kjfk, lax, eham, etc.)


Currently Available Live Feeds: 3201
Status Updated: Sun Jul 14 2024 17:26:22 UTC


NOTICE

Unauthorized use prohibited. See LiveATC.net Terms of Service

Europe Airport Feeds

 

EETN ATIS (Archives)
Tallinn, Estonia

Feed Status: UP
Listen in your browser - HTML5 player(in browser, HTML5)
Click here to listen with your own player(launches your MP3 player)

EETN 141650Z 21004KT 9999 SCT048 20/14 Q1014 NOSIG

EETN Flight Activity (Flightaware)

Listeners: 0 out of 1875 total

Tallinn ATIS: 124.880

EETN Radar (Archives)
Tallinn, Estonia

Feed Status: UP
Listen in your browser - HTML5 player(in browser, HTML5)
Click here to listen with your own player(launches your MP3 player)

EETN 141650Z 21004KT 9999 SCT048 20/14 Q1014 NOSIG

EETN Flight Activity (Flightaware)

Listeners: 0 out of 1875 total

Tallinn Radar: 127.905

EETN Tower (Archives)
Tallinn, Estonia

Feed Status: UP
Listen in your browser - HTML5 player(in browser, HTML5)
Click here to listen with your own player(launches your MP3 player)

EETN 141650Z 21004KT 9999 SCT048 20/14 Q1014 NOSIG

EETN Flight Activity (Flightaware)

Listeners: 0 out of 1875 total

Tallinn Tower: 135.905

EFJY Tower (Archives)
Jyvaskyla, Finland

Feed Status: UP
Listen in your browser - HTML5 player(in browser, HTML5)
Click here to listen with your own player(launches your MP3 player)

EFJY 141650Z AUTO 09005KT 9999 -SHRA FEW039 20/18 Q1014

EFJY Flight Activity (Flightaware)

Listeners: 1 out of 1875 total

Jyvaskyla Tower: 118.000
Jyvaskyla Tower: 119.700

Dutch Mil Radar
Amsterdam, Netherlands

Feed Status: DOWN
Offline since: 2024-07-10 22:12:22 UTC

EHLE 141655Z AUTO 26009KT 9999 FEW038 SCT046 20/12 Q1011 NOSIG

Approach: 124.530
Dutch Mil Flight Info: 264.325
Dutch Mil Radar: 128.355
Dutch Mil Radar: 132.350

EHAM App/Dep (Archives)
Amsterdam, Netherlands

Feed Status: UP
Listen in your browser - HTML5 player(in browser, HTML5)
Click here to listen with your own player(launches your MP3 player)

EHAM 141655Z 24014KT 9999 FEW035 19/10 Q1011 NOSIG

EHAM Flight Activity (Flightaware)

Listeners: 3 out of 1875 total

Amsterdam Radar ACC: 118.805
Amsterdam Radar ACC: 120.555
Amsterdam Radar ACC: 127.780
Schiphol Approach: 131.155
Schiphol Approach/Departure: 118.080
Schiphol Approach/Departure: 119.055
Schiphol Approach/Departure: 121.205
Schiphol Arrival: 118.405
Schiphol Arrival: 126.680

EHAM Ground (Archives)
Amsterdam, Netherlands

Feed Status: UP
Listen in your browser - HTML5 player(in browser, HTML5)
Click here to listen with your own player(launches your MP3 player)

EHAM 141655Z 24014KT 9999 FEW035 19/10 Q1011 NOSIG

EHAM Flight Activity (Flightaware)

Listeners: 9 out of 1875 total

Schiphol Ground: 121.560
Schiphol Ground: 121.590
Schiphol Ground (North): 121.805
Schiphol Ground (South): 121.705
Schiphol Ground (West): 121.905

EHAM Tower (Archives)
Amsterdam, Netherlands

Feed Status: UP
Listen in your browser - HTML5 player(in browser, HTML5)
Click here to listen with your own player(launches your MP3 player)

EHAM 141655Z 24014KT 9999 FEW035 19/10 Q1011 NOSIG

EHAM Flight Activity (Flightaware)

Listeners: 5 out of 1875 total

Schiphol Tower (secondary): 118.105
Schiphol Tower Main 06/24: 135.110
Schiphol Tower Main 18L/36R - 22/04: 119.230
Schiphol Tower West 18R/36L: 118.280

EHBK Gnd/Twr/App (Archives)
Beek, Netherlands

Feed Status: UP
Listen in your browser - HTML5 player(in browser, HTML5)
Click here to listen with your own player(launches your MP3 player)

EHBK 141655Z AUTO 26004KT 210V320 9999 NSC 20/12 Q1013 NOSIG

EHBK Flight Activity (Flightaware)

Listeners: 4 out of 1875 total

Beek Approach: 120.205
Beek Approach: 123.980
Beek Ground: 121.830
Beek Tower: 119.480
Beek Tower: 119.705

EHEH Approach #1 (Archives)
Eindhoven, Netherlands

Feed Status: UP
Listen in your browser - HTML5 player(in browser, HTML5)
Click here to listen with your own player(launches your MP3 player)

EHEH 141655Z AUTO 23009KT 200V270 9999 OVC170 21/12 Q1012 BLU TEMPO 30006KT RMK TREND REMOTE BY EHWX

EHEH Flight Activity (Flightaware)

Listeners: 2 out of 1875 total

DutchMil Info: 132.355
DutchMil Info UHF: 341.600
DutchMil RAPCON South: 123.180
Eindhoven Arrival: 125.530
Eindhoven Arrival (UHF): 265.975
Emergency/Guard: 121.500
Rapcon South UHF: 388.525
Volkel Arrival UHF: 291.200

EHEH ATIS
Eindhoven, Netherlands

Feed Status: DOWN
Offline since: 2024-03-18 19:35:21 UTC

EHEH 141655Z AUTO 23009KT 200V270 9999 OVC170 21/12 Q1012 BLU TEMPO 30006KT RMK TREND REMOTE BY EHWX

Eindhoven ATIS: 126.030

EHEH Ground #2
Eindhoven, Netherlands

Feed Status: DOWN
Offline since: 2024-03-17 21:50:05 UTC

EHEH 141655Z AUTO 23009KT 200V270 9999 OVC170 21/12 Q1012 BLU TEMPO 30006KT RMK TREND REMOTE BY EHWX

Eindhoven Ground: 121.930

EHEH Ground #3 (Archives)
Eindhoven, Netherlands

Feed Status: UP
Listen in your browser - HTML5 player(in browser, HTML5)
Click here to listen with your own player(launches your MP3 player)

EHEH 141655Z AUTO 23009KT 200V270 9999 OVC170 21/12 Q1012 BLU TEMPO 30006KT RMK TREND REMOTE BY EHWX

EHEH Flight Activity (Flightaware)

Listeners: 0 out of 1875 total

Eindhoven Ground: 121.930

EHEH Tower #1 (Archives)
Eindhoven, Netherlands

Feed Status: UP
Listen in your browser - HTML5 player(in browser, HTML5)
Click here to listen with your own player(launches your MP3 player)

EHEH 141655Z AUTO 23009KT 200V270 9999 OVC170 21/12 Q1012 BLU TEMPO 30006KT RMK TREND REMOTE BY EHWX

EHEH Flight Activity (Flightaware)

Listeners: 4 out of 1875 total

Eindhoven Tower: 131.005
Eindhoven Tower (UHF): 241.550
Generic Tower: 122.100
Generic Tower (UHF): 257.800
Volkel Tower: 136.080
Volkel Tower (UHF): 291.100

EHEH Tower #2 (Archives)
Eindhoven, Netherlands

Feed Status: UP
Listen in your browser - HTML5 player(in browser, HTML5)
Click here to listen with your own player(launches your MP3 player)

EHEH 141655Z AUTO 23009KT 200V270 9999 OVC170 21/12 Q1012 BLU TEMPO 30006KT RMK TREND REMOTE BY EHWX

EHEH Flight Activity (Flightaware)

Listeners: 0 out of 1875 total

Eindhoven Tower: 131.005

EHEH Tower 122.1 (Archives)
Eindhoven, Netherlands

Feed Status: UP
Listen in your browser - HTML5 player(in browser, HTML5)
Click here to listen with your own player(launches your MP3 player)

EHEH 141655Z AUTO 23009KT 200V270 9999 OVC170 21/12 Q1012 BLU TEMPO 30006KT RMK TREND REMOTE BY EHWX

EHEH Flight Activity (Flightaware)

Listeners: 1 out of 1875 total

Generic Tower: 122.100

EHGG Approach (Archives)
Groningen, Netherlands

Feed Status: UP
Listen in your browser - HTML5 player(in browser, HTML5)
Click here to listen with your own player(launches your MP3 player)

EHGG 141655Z AUTO 24018KT 200V270 9999 NSC 19/11 Q1010 NOSIG

EHGG Flight Activity (Flightaware)

Listeners: 1 out of 1875 total

Eelde Approach: 120.305

EHGG ATIS (Archives)
Groningen, Netherlands

Feed Status: UP
Listen in your browser - HTML5 player(in browser, HTML5)
Click here to listen with your own player(launches your MP3 player)

EHGG 141655Z AUTO 24018KT 200V270 9999 NSC 19/11 Q1010 NOSIG

EHGG Flight Activity (Flightaware)

Listeners: 0 out of 1875 total

Groningen ATIS: 133.555

EHGG Ground (Archives)
Groningen, Netherlands

Feed Status: UP
Listen in your browser - HTML5 player(in browser, HTML5)
Click here to listen with your own player(launches your MP3 player)

EHGG 141655Z AUTO 24018KT 200V270 9999 NSC 19/11 Q1010 NOSIG

EHGG Flight Activity (Flightaware)

Listeners: 0 out of 1875 total

Eelde Clearance Delivery/Ground: 121.705

EHGG Guard/Emergency (Archives)
Groningen, Netherlands

Feed Status: UP
Listen in your browser - HTML5 player(in browser, HTML5)
Click here to listen with your own player(launches your MP3 player)

EHGG 141655Z AUTO 24018KT 200V270 9999 NSC 19/11 Q1010 NOSIG

EHGG Flight Activity (Flightaware)

Listeners: 0 out of 1875 total

Emergency/Guard: 121.500

EHGG Tower (Archives)
Groningen, Netherlands

Feed Status: UP
Listen in your browser - HTML5 player(in browser, HTML5)
Click here to listen with your own player(launches your MP3 player)

EHGG 141655Z AUTO 24018KT 200V270 9999 NSC 19/11 Q1010 NOSIG

EHGG Flight Activity (Flightaware)

Listeners: 1 out of 1875 total

Eelde Tower: 118.705

EHGG Twr/App (Secondary) (Archives)
Groningen, Netherlands

Feed Status: UP
Listen in your browser - HTML5 player(in browser, HTML5)
Click here to listen with your own player(launches your MP3 player)

EHGG 141655Z AUTO 24018KT 200V270 9999 NSC 19/11 Q1010 NOSIG

EHGG Flight Activity (Flightaware)

Listeners: 0 out of 1875 total

Eelde Tower/App (Backup): 119.705

MUAC/Eurocontrol (EHGG Area) (Archives)
Groningen, Netherlands

Feed Status: UP
Listen in your browser - HTML5 player(in browser, HTML5)
Click here to listen with your own player(launches your MP3 player)

EHGG 141655Z AUTO 24018KT 200V270 9999 NSC 19/11 Q1010 NOSIG

EHGG Flight Activity (Flightaware)

Listeners: 0 out of 1875 total

MUAC Holstein High Sector: 132.775
MUAC Holstein Sector: 120.9333
MUAC Javer High Sector: 134.700
MUAC Jever Sector: 136.4666

EHGR Area Gliders (Archives)
Breda, Netherlands

Feed Status: UP
Listen in your browser - HTML5 player(in browser, HTML5)
Click here to listen with your own player(launches your MP3 player)

EHGR 141655Z AUTO 25006KT 210V290 9999 OVC190 21/12 Q1012 BLU

EHGR Flight Activity (Flightaware)

Listeners: 0 out of 1875 total

EHGR Area Gliders: 125.380

EHGR Gnd/Twr/App/Mil
Breda, Netherlands

Feed Status: DOWN
Offline since: 2024-06-25 20:43:22 UTC

EHGR 141655Z AUTO 25006KT 210V290 9999 OVC190 21/12 Q1012 BLU

Arrival: 123.580
Dutch Mil Radar: 132.350
Gilze Rijen Ground: 123.330
Gilze Rijen Tower: 125.330

EHGR Tower (Archives)
Breda, Netherlands

Feed Status: UP
Listen in your browser - HTML5 player(in browser, HTML5)
Click here to listen with your own player(launches your MP3 player)

EHGR 141655Z AUTO 25006KT 210V290 9999 OVC190 21/12 Q1012 BLU

EHGR Flight Activity (Flightaware)

Listeners: 0 out of 1875 total

Gilze Rijen Tower: 125.330

EHHV CTAF (Archives)
Hilversum, Netherlands

Feed Status: UP
Listen in your browser - HTML5 player(in browser, HTML5)
Click here to listen with your own player(launches your MP3 player)

EHHV Flight Activity (Flightaware)

Listeners: 0 out of 1875 total

Hilversum Radio: 131.030

EHKD ATIS (Archives)
Den Helder, Netherlands

Feed Status: UP
Listen in your browser - HTML5 player(in browser, HTML5)
Click here to listen with your own player(launches your MP3 player)

EHKD 141655Z AUTO 24016KT 9999 BKN048 OVC061 17/13 Q1010 BLU NOSIG

EHKD Flight Activity (Flightaware)

Listeners: 0 out of 1875 total

De Kooy ATIS: 133.015

EHKD Ground/Tower (Archives)
Den Helder, Netherlands

Feed Status: UP
Listen in your browser - HTML5 player(in browser, HTML5)
Click here to listen with your own player(launches your MP3 player)

EHKD 141655Z AUTO 24016KT 9999 BKN048 OVC061 17/13 Q1010 BLU NOSIG

EHKD Flight Activity (Flightaware)

Listeners: 0 out of 1875 total

De Kooy Ground: 121.730
De Kooy Tower: 120.130

Approach/Dutch Mil Radar
Lelystad, Netherlands

Feed Status: DOWN
Offline since: 2024-07-10 22:12:22 UTC

EHLE 141655Z AUTO 26009KT 9999 FEW038 SCT046 20/12 Q1011 NOSIG

Approach: 124.530
Dutch Mil Flight Info: 264.325
Dutch Mil Radar: 128.355
Dutch Mil Radar: 132.350

EHLE App/Dep
Lelystad, Netherlands

Feed Status: DOWN
Offline since: 2024-07-10 22:12:22 UTC

EHLE 141655Z AUTO 26009KT 9999 FEW038 SCT046 20/12 Q1011 NOSIG

Lelystad Approach: 134.530

EHLE Clearance Delivery
Lelystad, Netherlands

Feed Status: DOWN
Offline since: 2024-07-10 22:12:22 UTC

EHLE 141655Z AUTO 26009KT 9999 FEW038 SCT046 20/12 Q1011 NOSIG

Lelystad Clearance Delivery: 123.680

EHLE FIC
Lelystad, Netherlands

Feed Status: DOWN
Offline since: 2024-07-10 22:12:22 UTC

EHLE 141655Z AUTO 26009KT 9999 FEW038 SCT046 20/12 Q1011 NOSIG

FIC Amsterdam Information: 124.300

EHLE Tower
Lelystad, Netherlands

Feed Status: DOWN
Offline since: 2024-07-10 22:12:22 UTC

EHLE 141655Z AUTO 26009KT 9999 FEW038 SCT046 20/12 Q1011 NOSIG

Lelystad Tower: 135.180
Lelystad Tower: 123.830

EHMM CTAF (Archives)
Middenmeer, Netherlands

Feed Status: UP
Listen in your browser - HTML5 player(in browser, HTML5)
Click here to listen with your own player(launches your MP3 player)

EHMM Flight Activity (Flightaware)

Listeners: 0 out of 1875 total

Middenmeer CTAF: 123.425

EHMZ (Archives)
Middelburg, Netherlands

Feed Status: UP
Listen in your browser - HTML5 player(in browser, HTML5)
Click here to listen with your own player(launches your MP3 player)

EHMZ Flight Activity (Flightaware)

Listeners: 0 out of 1875 total

Midden-Zeeland Radio: 119.255

EHRD Approach (Archives)
Rotterdam, Netherlands

Feed Status: UP
Listen in your browser - HTML5 player(in browser, HTML5)
Click here to listen with your own player(launches your MP3 player)

EHRD 141655Z AUTO 24012KT 210V270 9999 NSC 19/09 Q1012 NOSIG

EHRD Flight Activity (Flightaware)

Listeners: 1 out of 1875 total

Rotterdam Approach: 122.990
Rotterdam Approach: 124.535
Rotterdam Approach: 281.050

EHRD Clearance Delivery (Archives)
Rotterdam, Netherlands

Feed Status: UP
Listen in your browser - HTML5 player(in browser, HTML5)
Click here to listen with your own player(launches your MP3 player)

EHRD 141655Z AUTO 24012KT 210V270 9999 NSC 19/09 Q1012 NOSIG

EHRD Flight Activity (Flightaware)

Listeners: 0 out of 1875 total

Rotterdam Del/Gnd: 122.180

EHRD Del/Twr (Archives)
Rotterdam, Netherlands

Feed Status: UP
Listen in your browser - HTML5 player(in browser, HTML5)
Click here to listen with your own player(launches your MP3 player)

EHRD 141655Z AUTO 24012KT 210V270 9999 NSC 19/09 Q1012 NOSIG

EHRD Flight Activity (Flightaware)

Listeners: 0 out of 1875 total

Rotterdam Del/Gnd: 122.180
Rotterdam Tower: 118.205

EHRD Gnd/Twr/App (Archives)
Rotterdam, Netherlands

Feed Status: UP
Listen in your browser - HTML5 player(in browser, HTML5)
Click here to listen with your own player(launches your MP3 player)

EHRD 141655Z AUTO 24012KT 210V270 9999 NSC 19/09 Q1012 NOSIG

EHRD Flight Activity (Flightaware)

Listeners: out of 1875 total

Adam Info: 124.300
Regional Guard: 119.705
Rotterdam Approach: 127.025
Rotterdam Del/Gnd: 122.180
Rotterdam Tower: 118.205
SAR: 123.100
SAR: 282.800

EHRD Tower (Archives)
Rotterdam, Netherlands

Feed Status: UP
Listen in your browser - HTML5 player(in browser, HTML5)
Click here to listen with your own player(launches your MP3 player)

EHRD 141655Z AUTO 24012KT 210V270 9999 NSC 19/09 Q1012 NOSIG

EHRD Flight Activity (Flightaware)

Listeners: 2 out of 1875 total

Rotterdam Tower: 118.205
Rotterdam Tower: 362.300

EHTX Radio (Archives)
De Cocksdorp, Netherlands

Feed Status: UP
Listen in your browser - HTML5 player(in browser, HTML5)
Click here to listen with your own player(launches your MP3 player)

EHTX Flight Activity (Flightaware)

Listeners: 1 out of 1875 total

Texel Radio (Ground/Tower): 119.305

EICK Gnd/Twr/App/Dep (Archives)
Cork, Ireland

Feed Status: UP
Listen in your browser - HTML5 player(in browser, HTML5)
Click here to listen with your own player(launches your MP3 player)

EICK 141630Z 19008KT 9999 FEW030 BKN120 16/10 Q1010 NOSIG

EICK Flight Activity (Flightaware)

Listeners: 0 out of 1875 total

Cork Approach: 119.900
Cork Ground: 121.850
Cork Tower: 119.300

EIDW Gnd/Twr/App/Centre (Archives)
Dublin, Ireland

Feed Status: UP
Listen in your browser - HTML5 player(in browser, HTML5)
Click here to listen with your own player(launches your MP3 player)

EIDW 141630Z 12006KT 070V170 9999 FEW014 BKN100 BKN250 18/13 Q1010 NOSIG

EIDW Flight Activity (Flightaware)

Listeners: 14 out of 1875 total

Dublin Approach: 121.100
Dublin Centre: 132.575
Dublin Ground (North): 125.880
Dublin Ground (South): 121.800
Dublin Tower (North): 124.680
Dublin Tower (South): 118.600

EIDW London Control (North Sea) (Archives)
Dublin, Ireland

Feed Status: UP
Listen in your browser - HTML5 player(in browser, HTML5)
Click here to listen with your own player(launches your MP3 player)

EIDW 141630Z 12006KT 070V170 9999 FEW014 BKN100 BKN250 18/13 Q1010 NOSIG

EIDW Flight Activity (Flightaware)

Listeners: 1 out of 1875 total

London Control (West Drayton/North Sea): 133.700

EIDW Scottish Control (STAFA) (Archives)
Dublin, Ireland

Feed Status: UP
Listen in your browser - HTML5 player(in browser, HTML5)
Click here to listen with your own player(launches your MP3 player)

EIDW 141630Z 12006KT 070V170 9999 FEW014 BKN100 BKN250 18/13 Q1010 NOSIG

EIDW Flight Activity (Flightaware)

Listeners: 0 out of 1875 total

Scottish Control (STAFA): 134.425

EIDW Tower (North/South)/App (Archives)
Dublin, Ireland

Feed Status: UP
Listen in your browser - HTML5 player(in browser, HTML5)
Click here to listen with your own player(launches your MP3 player)

EIDW 141630Z 12006KT 070V170 9999 FEW014 BKN100 BKN250 18/13 Q1010 NOSIG

EIDW Flight Activity (Flightaware)

Listeners: 1 out of 1875 total

Dublin Approach: 121.100
Dublin Approach (Final): 119.930
Dublin Tower (North): 124.680
Dublin Tower (South): 118.600

EIKN Gnd/Twr/App (Archives)
Charlestown, Ireland

Feed Status: UP
Listen in your browser - HTML5 player(in browser, HTML5)
Click here to listen with your own player(launches your MP3 player)

EIKN 141630Z 13002KT 9999 FEW021 SCT050 BKN080 18/12 Q1010 NOSIG

EIKN Flight Activity (Flightaware)

Listeners: 2 out of 1875 total

Connaught Ground: 121.900
Connaught Tower: 130.700
Shannon Low Level: 119.075

EINN Shannon Control High (East) (Archives)
Shannon, Ireland

Feed Status: UP
Listen in your browser - HTML5 player(in browser, HTML5)
Click here to listen with your own player(launches your MP3 player)

EINN 141630Z 25002KT 9999 FEW030 BKN080 18/12 Q1010 NOSIG

EINN Flight Activity (Flightaware)

Listeners: 3 out of 1875 total

Shannon Clearance (Oceanic only): 127.900
Shannon Control: 134.260
Shannon Control: 134.630
Shannon Control: 135.230
Shannon Control: 135.600
Shannon Control: 136.255
Shannon Control (BABAN/DEVOL Sector): 132.150

EINN Shannon Control High (West/Coastal) (Archives)
Shannon, Ireland

Feed Status: UP
Listen in your browser - HTML5 player(in browser, HTML5)
Click here to listen with your own player(launches your MP3 player)

EINN 141630Z 25002KT 9999 FEW030 BKN080 18/12 Q1010 NOSIG

EINN Flight Activity (Flightaware)

Listeners: 6 out of 1875 total

Shannon Control: 131.150
Shannon Control: 125.880
Shannon Control: 120.040
Shannon Control: 122.980
Shannon Control: 127.130
Shannon Control: 129.665
Shannon Control: 133.360

EINN Shannon Control Low (Archives)
Shannon, Ireland

Feed Status: UP
Listen in your browser - HTML5 player(in browser, HTML5)
Click here to listen with your own player(launches your MP3 player)

EINN 141630Z 25002KT 9999 FEW030 BKN080 18/12 Q1010 NOSIG

EINN Flight Activity (Flightaware)

Listeners: 4 out of 1875 total

Shannon Control (Low): 119.080
Shannon Control Low: 124.700

EINN Twr/App #1 (Archives)
Shannon, Ireland

Feed Status: UP
Listen in your browser - HTML5 player(in browser, HTML5)
Click here to listen with your own player(launches your MP3 player)

EINN 141630Z 25002KT 9999 FEW030 BKN080 18/12 Q1010 NOSIG

EINN Flight Activity (Flightaware)

Listeners: 6 out of 1875 total

Aer Lingus Ops: 131.500
Service Air Ops: 131.450
Shannon Approach Radar: 121.400
Shannon Control: Misc
Shannon Ground: 121.800
Shannon Tower: 118.700
Sig Ops (Pre-Clearance): 131.590

ENAL Twr/App (Archives)
Alesund, Norway

Feed Status: UP
Listen in your browser - HTML5 player(in browser, HTML5)
Click here to listen with your own player(launches your MP3 player)

ENAL 141650Z 07011KT 9999 -RA FEW009 SCT060 17/14 Q1007

ENAL Flight Activity (Flightaware)

Listeners: 0 out of 1875 total

More Approach: 129.325
More Approach: 119.350
Vigra Tower: 118.100

ENAT Twr/App/Control (Archives)
Alta, Norway

Feed Status: UP
Listen in your browser - HTML5 player(in browser, HTML5)
Click here to listen with your own player(launches your MP3 player)

ENAT 141650Z 34008KT CAVOK 17/11 Q1015 RMK WIND 700FT 36014KT

ENAT Flight Activity (Flightaware)

Listeners: 0 out of 1875 total

Alta Tower (to boat, Harbour Channel 12): 156.600
Alta Tower (to vehicle): 462.400
Alta Tower/Approach: 120.400
Norway Control: 126.700

ENBO Approach
Bodo, Norway

Feed Status: DOWN
Offline since: 2024-07-14 15:51:04 UTC

ENBO 141650Z 35009KT CAVOK 19/12 Q1013 NOSIG

Bodo Approach: 119.700

ENBO Tower
Bodo, Norway

Feed Status: DOWN
Offline since: 2024-07-14 15:51:04 UTC

ENBO 141650Z 35009KT CAVOK 19/12 Q1013 NOSIG

Bodo Tower: 118.100

ENCN Tower/Approach (Archives)
Kristiansand, Norway

Feed Status: UP
Listen in your browser - HTML5 player(in browser, HTML5)
Click here to listen with your own player(launches your MP3 player)

ENCN 141650Z 19009KT 9999 SCT025 17/13 Q1007

ENCN Flight Activity (Flightaware)

Listeners: 0 out of 1875 total

Kjevik Tower: 118.100
Kjevik Tower/Approach: 119.950

ENGM App/Polaris ACC (Archives)
Honefoss, Norway

Feed Status: UP
Listen in your browser - HTML5 player(in browser, HTML5)
Click here to listen with your own player(launches your MP3 player)

ENEG Flight Activity (Flightaware)

Listeners: 3 out of 1875 total

ENEG Tower: 122.700
Polaris ACC Sector 13: 134.925
Polaris ACC Sector 18: 125.700
Polaris ACC Sector 3: 125.050
Polaris ACC Sector 5: 127.250
Polaris ACC Sector 7: 124.775
Polaris ACC Sector 8: 134.350

ENEV Twr/App/ACC (Archives)
Evenes, Norway

Feed Status: UP
Listen in your browser - HTML5 player(in browser, HTML5)
Click here to listen with your own player(launches your MP3 player)

ENEV 141650Z 35010KT CAVOK 17/12 Q1014 NOSIG RMK WIND 1400FT 32005KT

ENEV Flight Activity (Flightaware)

Listeners: 1 out of 1875 total

Evenes Approach: 120.100
Evenes Tower: 118.000
Norway ACC (Bodo Sector 25): 126.450

ENGK Info
Arendal, Norway

Feed Status: DOWN
Offline since: 2024-07-14 16:48:04 UTC

ENGK 241420Z 21004KT 170V260 4500 BR BKN003 06/06 Q1015

Gullknapp Info: 129.900

ENGM App/Polaris ACC (Archives)
Oslo, Norway

Feed Status: UP
Listen in your browser - HTML5 player(in browser, HTML5)
Click here to listen with your own player(launches your MP3 player)

ENEG Flight Activity (Flightaware)

Listeners: 3 out of 1875 total

ENEG Tower: 122.700
Polaris ACC Sector 13: 134.925
Polaris ACC Sector 18: 125.700
Polaris ACC Sector 3: 125.050
Polaris ACC Sector 5: 127.250
Polaris ACC Sector 7: 124.775
Polaris ACC Sector 8: 134.350

ENGM Tower (Archives)
Oslo, Norway

Feed Status: UP
Listen in your browser - HTML5 player(in browser, HTML5)
Click here to listen with your own player(launches your MP3 player)

ENGM 141650Z 19010KT 9999 FEW010 SCT015 BKN058 17/15 Q1005 NOSIG

ENGM Flight Activity (Flightaware)

Listeners: 0 out of 1875 total

Oslo Tower (East): 120.100
Oslo Tower (West): 118.300

ENHD Tower (Archives)
Haugesund, Norway

Feed Status: UP
Listen in your browser - HTML5 player(in browser, HTML5)
Click here to listen with your own player(launches your MP3 player)

ENHD 141650Z 34007KT 9999 VCSH FEW015CB SCT072 18/14 Q1005

ENHD Flight Activity (Flightaware)

Listeners: 0 out of 1875 total

Karmoy Tower: 120.500

ENJB CTAF (Archives)
Tonsberg, Norway

Feed Status: UP
Listen in your browser - HTML5 player(in browser, HTML5)
Click here to listen with your own player(launches your MP3 player)

ENTO 141650Z 21010KT 9999 FEW016 BKN051 18/14 Q1006 NOSIG

ENTO Flight Activity (Flightaware)

Listeners: 0 out of 1875 total

Jarlsberg CTAF: 122.300

ENKJ CTAF/RDO/Guard
Kjeller, Norway

Feed Status: DOWN
Offline since: 2024-07-14 17:26:05 UTC

Emergency/Guard: 121.500
Kjeller RDO: 119.100
Kjeller UNICOM: 123.500

ENOR Sector 8 (Archives)
Moss, Norway

Feed Status: UP
Listen in your browser - HTML5 player(in browser, HTML5)
Click here to listen with your own player(launches your MP3 player)

ENOR Flight Activity (Flightaware)

Listeners: 0 out of 1875 total

Norway Center (FIR) Sector 8: 118.875

ENRY Tower (Archives)
Moss, Norway

Feed Status: UP
Listen in your browser - HTML5 player(in browser, HTML5)
Click here to listen with your own player(launches your MP3 player)

ENRY 141650Z AUTO 19013KT 9999 FEW013/// SCT038/// BKN056/// 17/14 Q1007

ENRY Flight Activity (Flightaware)

Listeners: 0 out of 1875 total

Rygge Tower: 119.500

ENTC Tower/App (Archives)
Langnes, Norway

Feed Status: UP
Listen in your browser - HTML5 player(in browser, HTML5)
Click here to listen with your own player(launches your MP3 player)

ENTC 141650Z 00000KT 9999 FEW008 15/10 Q1015 NOSIG RMK WIND 2600FT 23012KT

ENTC Flight Activity (Flightaware)

Listeners: 2 out of 1875 total

Langnes Tower: 118.300
Langnes VDF (Approach): 123.750

ENTO App/Dep (Archives)
Sandefjord, Norway

Feed Status: UP
Listen in your browser - HTML5 player(in browser, HTML5)
Click here to listen with your own player(launches your MP3 player)

ENTO 141650Z 21010KT 9999 FEW016 BKN051 18/14 Q1006 NOSIG

ENTO Flight Activity (Flightaware)

Listeners: 0 out of 1875 total

Sandefjord Approach (TMA): 134.050

ENTO Control Sector 4 (Archives)
Sandefjord, Norway

Feed Status: UP
Listen in your browser - HTML5 player(in browser, HTML5)
Click here to listen with your own player(launches your MP3 player)

ENTO 141650Z 21010KT 9999 FEW016 BKN051 18/14 Q1006 NOSIG

ENTO Flight Activity (Flightaware)

Listeners: 0 out of 1875 total

Norway control Sector 4: 118.875

ENTO Tower (Archives)
Sandefjord, Norway

Feed Status: UP
Listen in your browser - HTML5 player(in browser, HTML5)
Click here to listen with your own player(launches your MP3 player)

ENTO 141650Z 21010KT 9999 FEW016 BKN051 18/14 Q1006 NOSIG

ENTO Flight Activity (Flightaware)

Listeners: 0 out of 1875 total

Sandefjord Tower: 118.650

ENTO Tower/App (Archives)
Sandefjord, Norway

Feed Status: UP
Listen in your browser - HTML5 player(in browser, HTML5)
Click here to listen with your own player(launches your MP3 player)

ENTO 141650Z 21010KT 9999 FEW016 BKN051 18/14 Q1006 NOSIG

ENTO Flight Activity (Flightaware)

Listeners: 0 out of 1875 total

ENJB Tonsberg Airport - Jarlsberg - CTAF: 122.300
Farris Approach (TCA): 134.050
Sandefjord Tower: 118.650

ENTO Twr/App (Archives)
Sandefjord, Norway

Feed Status: UP
Listen in your browser - HTML5 player(in browser, HTML5)
Click here to listen with your own player(launches your MP3 player)

ENTO 141650Z 21010KT 9999 FEW016 BKN051 18/14 Q1006 NOSIG

ENTO Flight Activity (Flightaware)

Listeners: 0 out of 1875 total

Sandefjord Approach (TMA): 134.050
Sandefjord Tower: 118.650

ENVA Gnd/Twr/App (Archives)
Trondheim, Norway

Feed Status: UP
Listen in your browser - HTML5 player(in browser, HTML5)
Click here to listen with your own player(launches your MP3 player)

ENVA 141650Z 08008KT 9999 -RA SCT059 BKN087 19/16 Q1009 RERA RMK WIND 670FT 08013KT

ENVA Flight Activity (Flightaware)

Listeners: 4 out of 1875 total

Trondheim Approach: 118.600
Trondheim Ground: 121.600
Trondheim Tower: 119.400

ENZV Gnd/Twr/App (Archives)
Stavanger, Norway

Feed Status: UP
Listen in your browser - HTML5 player(in browser, HTML5)
Click here to listen with your own player(launches your MP3 player)

ENZV 141650Z 19008KT 9999 VCSH FEW007CB OVC046 16/14 Q1006 NOSIG

ENZV Flight Activity (Flightaware)

Listeners: 2 out of 1875 total

Sola Approach/Departure: 119.600
Sola Ground: 121.750
Sola Tower: 118.350

EPKK Tower/App (Archives)
Krakow, Poland

Feed Status: UP
Listen in your browser - HTML5 player(in browser, HTML5)
Click here to listen with your own player(launches your MP3 player)

EPKK 141630Z 09005KT 050V120 9999 FEW030 25/19 Q1014

EPKK Flight Activity (Flightaware)

Listeners: 5 out of 1875 total

Krakow Approach: 121.075
Krakow Approach: 123.255
Krakow Tower: 123.255

EPKR CTAF (Archives)
Krosno, Poland

Feed Status: UP
Listen in your browser - HTML5 player(in browser, HTML5)
Click here to listen with your own player(launches your MP3 player)

EPKR Flight Activity (Flightaware)

Listeners: 0 out of 1875 total

Krosno CTAF: 119.555

EPKR Krakow Info (Archives)
Krosno, Poland

Feed Status: UP
Listen in your browser - HTML5 player(in browser, HTML5)
Click here to listen with your own player(launches your MP3 player)

EPKR Flight Activity (Flightaware)

Listeners: 0 out of 1875 total

Krakow Info: 119.250
Krakow Info: 119.950

EPKT Del/Twr/App
Katowice, Poland

Feed Status: DOWN
Offline since: 2024-07-14 00:02:39 UTC

EPKT 141630Z 06005KT CAVOK 25/17 Q1014

Katowice Delivery: 121.800
Katowice Tower: 129.250
Krakow Approach: 135.400
Krakow Approach: 121.075

EPKT Delivery/Approach
Katowice, Poland

Feed Status: DOWN
Offline since: 2024-07-14 00:02:22 UTC

EPKT 141630Z 06005KT CAVOK 25/17 Q1014

Katowice Delivery: 121.800
Krakow Approach: 121.075

EPKT Tower/Approach
Katowice, Poland

Feed Status: DOWN
Offline since: 2024-07-14 00:02:22 UTC

EPKT 141630Z 06005KT CAVOK 25/17 Q1014

Katowice Tower: 129.250
Krakow Approach: 135.400

EPLB Tower (Archives)
Lublin, Poland

Feed Status: UP
Listen in your browser - HTML5 player(in browser, HTML5)
Click here to listen with your own player(launches your MP3 player)

EPLB 141630Z 34005KT 9999 FEW030 26/20 Q1014

EPLB Flight Activity (Flightaware)

Listeners: 1 out of 1875 total

Lublin Tower: 136.430

EPLL Tower (Archives)
Lodz, Poland

Feed Status: UP
Listen in your browser - HTML5 player(in browser, HTML5)
Click here to listen with your own player(launches your MP3 player)

EPLL 141630Z 07007KT 050V110 CAVOK 26/15 Q1014

EPLL Flight Activity (Flightaware)

Listeners: 0 out of 1875 total

Lodz Tower: 124.230

EPLS CTAF/Radio (Archives)
Leszno, Poland

Feed Status: UP
Listen in your browser - HTML5 player(in browser, HTML5)
Click here to listen with your own player(launches your MP3 player)

EPLS Flight Activity (Flightaware)

Listeners: 0 out of 1875 total

Leszno Radio: 122.305

EPGR Radio (Archives)
Olsztyn, Poland

Feed Status: UP
Listen in your browser - HTML5 player(in browser, HTML5)
Click here to listen with your own player(launches your MP3 player)

EPOD Flight Activity (Flightaware)

Listeners: 0 out of 1875 total

EPGR - Gryzliny Radio: 119.055

EPOD FIS (Archives)
Olsztyn, Poland

Feed Status: UP
Listen in your browser - HTML5 player(in browser, HTML5)
Click here to listen with your own player(launches your MP3 player)

EPOD Flight Activity (Flightaware)

Listeners: 0 out of 1875 total

FIS Olsztyn Informacja: 118.775

EPOD Radio (Archives)
Olsztyn, Poland

Feed Status: UP
Listen in your browser - HTML5 player(in browser, HTML5)
Click here to listen with your own player(launches your MP3 player)

EPOD Flight Activity (Flightaware)

Listeners: 0 out of 1875 total

EPOD - Olsztyn Dajtki Radio: 124.480

EPPO Twr/App/FIS (Archives)
Poznan, Poland

Feed Status: UP
Listen in your browser - HTML5 player(in browser, HTML5)
Click here to listen with your own player(launches your MP3 player)

EPPO 141630Z 13010KT 080V140 9999 VCTS FEW018 FEW052CB 20/17 Q1014 RETS

EPPO Flight Activity (Flightaware)

Listeners: 2 out of 1875 total

Poznan Approach: 129.025
Poznan Approach: 127.225
Poznan FIS: 126.300
Poznan Tower: 119.975

EPWA Approach #1 (Archives)
Warsaw, Poland

Feed Status: UP
Listen in your browser - HTML5 player(in browser, HTML5)
Click here to listen with your own player(launches your MP3 player)

EPWA 141630Z VRB02KT 9999 FEW045 26/16 Q1014 NOSIG

EPWA Flight Activity (Flightaware)

Listeners: 20 out of 1875 total

Warsaw Approach: 128.805

EPWA Approach #2 (Archives)
Warsaw, Poland

Feed Status: UP
Listen in your browser - HTML5 player(in browser, HTML5)
Click here to listen with your own player(launches your MP3 player)

EPWA 141630Z VRB02KT 9999 FEW045 26/16 Q1014 NOSIG

EPWA Flight Activity (Flightaware)

Listeners: 1 out of 1875 total

Warsaw Approach: 125.055

EPWA Ground (Archives)
Warsaw, Poland

Feed Status: UP
Listen in your browser - HTML5 player(in browser, HTML5)
Click here to listen with your own player(launches your MP3 player)

EPWA 141630Z VRB02KT 9999 FEW045 26/16 Q1014 NOSIG

EPWA Flight Activity (Flightaware)

Listeners: 0 out of 1875 total

Warsaw Ground: 121.900

EPWA Tower (Archives)
Warsaw, Poland

Feed Status: UP
Listen in your browser - HTML5 player(in browser, HTML5)
Click here to listen with your own player(launches your MP3 player)

EPWA 141630Z VRB02KT 9999 FEW045 26/16 Q1014 NOSIG

EPWA Flight Activity (Flightaware)

Listeners: 2 out of 1875 total

Warsaw Tower: 118.300

ESGG Approach (Archives)
Gothenburg, Sweden

Feed Status: UP
Listen in your browser - HTML5 player(in browser, HTML5)
Click here to listen with your own player(launches your MP3 player)

ESGG 141650Z 20014KT 9999 SCT018 16/12 Q1009

ESGG Flight Activity (Flightaware)

Listeners: 0 out of 1875 total

Goteborg Control: 124.205

ESGG Tower (Archives)
Gothenburg, Sweden

Feed Status: UP
Listen in your browser - HTML5 player(in browser, HTML5)
Click here to listen with your own player(launches your MP3 player)

ESGG 141650Z 20014KT 9999 SCT018 16/12 Q1009

ESGG Flight Activity (Flightaware)

Listeners: 1 out of 1875 total

Landvetter Tower: 121.680

ESGG Twr/App (Archives)
Gothenburg, Sweden

Feed Status: UP
Listen in your browser - HTML5 player(in browser, HTML5)
Click here to listen with your own player(launches your MP3 player)

ESGG 141650Z 20014KT 9999 SCT018 16/12 Q1009

ESGG Flight Activity (Flightaware)

Listeners: 3 out of 1875 total

Goteborg Control: 124.205
Landvetter Tower: 121.680

ESMQ Tower (Archives)
Kalmar, Sweden

Feed Status: UP
Listen in your browser - HTML5 player(in browser, HTML5)
Click here to listen with your own player(launches your MP3 player)

ESMQ 141650Z AUTO 17011KT 9999 FEW034/// 19/14 Q1011

ESMQ Flight Activity (Flightaware)

Listeners: 0 out of 1875 total

Kalmar Tower: 130.805

ESMS Radar (Archives)
Svedala, Sweden

Feed Status: UP
Listen in your browser - HTML5 player(in browser, HTML5)
Click here to listen with your own player(launches your MP3 player)

ESMS 141650Z 21011KT CAVOK 19/10 Q1012

ESMS Flight Activity (Flightaware)

Listeners: 2 out of 1875 total

Sweden Control (Sector L, Malmo): 134.980

ESMS Tower
Svedala, Sweden

Feed Status: DOWN
Offline since: 2024-01-05 09:18:39 UTC

ESMS 141650Z 21011KT CAVOK 19/10 Q1012

Malmo Tower: 118.800

ESOE Tower/Control (Archives)
Orebro, Sweden

Feed Status: UP
Listen in your browser - HTML5 player(in browser, HTML5)
Click here to listen with your own player(launches your MP3 player)

ESOE 141650Z 21014KT 9999 VCSH BKN030CB 19/14 Q1008 RERA

ESOE Flight Activity (Flightaware)

Listeners: 0 out of 1875 total

Orebro Tower: 120.275
Orebro Tower: 120.280
Sweden Control: 131.125
Sweden Control (aircraft only): 131.125

ESPA Twr/Control (Archives)
Lulea, Sweden

Feed Status: UP
Listen in your browser - HTML5 player(in browser, HTML5)
Click here to listen with your own player(launches your MP3 player)

ESPA 141650Z 09007KT 060V120 CAVOK 19/10 Q1015

ESPA Flight Activity (Flightaware)

Listeners: 0 out of 1875 total

Emergency/Guard: 121.500
Kallax Control: 125.450
Kallax Tower: 128.200
Sweden Control North: 131.050

ESSB Tower (Archives)
Stockholm, Sweden

Feed Status: UP
Listen in your browser - HTML5 player(in browser, HTML5)
Click here to listen with your own player(launches your MP3 player)

ESSB 141650Z 17005KT 150V210 9999 FEW039 SCT048 20/14 Q1009

ESSB Flight Activity (Flightaware)

Listeners: 5 out of 1875 total

Bromma Tower: 118.105

ESSG Misc (Archives)
Ludvika, Sweden

Feed Status: UP
Listen in your browser - HTML5 player(in browser, HTML5)
Click here to listen with your own player(launches your MP3 player)

ESSG Flight Activity (Flightaware)

Listeners: 0 out of 1875 total

Borlange Tower: 127.305
Club Frequency: 123.375
Club Frequency: 123.450
Club Frequency: 123.425
Club Frequency: 123.525
Club Frequency: 123.350
Club Frequency: 123.300
Club Frequency: 123.200
Club Frequency: 123.550
Club Frequency: 123.600
Club Frequency: 123.650
Emergency/Guard: 121.500
Hagfors Airport: 122.230
Karlstad Airport: 119.455
Ludvika Club Freq: 123.150
Mora Airport: 119.055
Orebro Airport: 120.280
Orsa Club Frequency: 123.400
Orsa Club Frequency: 123.500
Scandinavian Mountains Airport: 124.460
Search and Rescue: 123.100
Sweden Control: 131.055
Sweden Control: 131.125
Sweden Control: 131.155
Sweden Control: 132.765
Sweden Control: 131.130
Sweden Control: 129.180
Sweden Control: 128.630
Sweden Control: 132.150
Torsby Airport: 122.055
Vasteras Control: 125.955

ESSL Twr/App/Control (Archives)
Linkoping, Sweden

Feed Status: UP
Listen in your browser - HTML5 player(in browser, HTML5)
Click here to listen with your own player(launches your MP3 player)

ESSL 141650Z AUTO 24007KT 210V280 9999 FEW057/// SCT082/// 22/12 Q1009

ESSL Flight Activity (Flightaware)

Listeners: 1 out of 1875 total

Emergency/Guard: 121.500
Linkoping Tower: 118.800
Linkoping Tower (Secondary): 123.400
Ostgota Control: 127.350
Ostgota Control: 126.400
Ostgota Control: 135.850
Ostgota Control: 132.950
Ostgota Control: 128.700
Ostgota Control (Malmen Sector): 133.100
Ostgota Control/Sweden Control: 118.400

ESSP Twr/App/Control (Archives)
Norrkoping, Sweden

Feed Status: UP
Listen in your browser - HTML5 player(in browser, HTML5)
Click here to listen with your own player(launches your MP3 player)

ESSP 141650Z 19003KT 9999 FEW026 SCT041 18/15 Q1009

ESSP Flight Activity (Flightaware)

Listeners: 0 out of 1875 total

Kungsangen Tower: 120.355
Osgota Approach/Departure: 132.955
Sweden Control: 118.280
Sweden Control: 118.405
Sweden Control: 134.455

EVRA Approach (Archives)
Riga, Latvia

Feed Status: UP
Listen in your browser - HTML5 player(in browser, HTML5)
Click here to listen with your own player(launches your MP3 player)

EVRA 141650Z 25003KT 220V290 CAVOK 23/12 Q1014 NOSIG

EVRA Flight Activity (Flightaware)

Listeners: 0 out of 1875 total

Riga Approach: 129.925

EVRA CTAF (Archives)
Riga, Latvia

Feed Status: UP
Listen in your browser - HTML5 player(in browser, HTML5)
Click here to listen with your own player(launches your MP3 player)

EVRA 141650Z 25003KT 220V290 CAVOK 23/12 Q1014 NOSIG

EVRA Flight Activity (Flightaware)

Listeners: 0 out of 1875 total

Riga Approach (evenings): 134.850
Riga CTAF: 123.950

EVRA FIC (Archives)
Riga, Latvia

Feed Status: UP
Listen in your browser - HTML5 player(in browser, HTML5)
Click here to listen with your own player(launches your MP3 player)

EVRA 141650Z 25003KT 220V290 CAVOK 23/12 Q1014 NOSIG

EVRA Flight Activity (Flightaware)

Listeners: 0 out of 1875 total

Riga FIC: 120.225

EVRA Tower/Guard (Archives)
Riga, Latvia

Feed Status: UP
Listen in your browser - HTML5 player(in browser, HTML5)
Click here to listen with your own player(launches your MP3 player)

EVRA 141650Z 25003KT 220V290 CAVOK 23/12 Q1014 NOSIG

EVRA Flight Activity (Flightaware)

Listeners: 0 out of 1875 total

Emergency/Guard: 121.500
Riga Tower: 118.100

EYVI Twr/App/Misc (Archives)
Vilnius, Lithuania

Feed Status: UP
Listen in your browser - HTML5 player(in browser, HTML5)
Click here to listen with your own player(launches your MP3 player)

EYVI 141650Z 36006KT 310V030 CAVOK 22/16 Q1015 NOSIG

EYVI Flight Activity (Flightaware)

Listeners: 2 out of 1875 total

Emergency / GUARD: 121.500
FlyLAL, AirBaltic transit services: 131.900
FlyLAL, AirBaltic transit services: 131.600
FlyLAL, AirBaltic transit services: 131.500
Kaunas Approach (EYKA): 124.200
Vilnius Approach: 120.700
Vilnius Control: 132.275
Vilnius Control: 133.425
Vilnius Control: 133.300
Vilnius FIS: 123.850
Vilnius Tower: 118.200
Zokniai A/G (mil): 122.775

LBBG Twr/App (Archives)
Burgas, Bulgaria

Feed Status: UP
Listen in your browser - HTML5 player(in browser, HTML5)
Click here to listen with your own player(launches your MP3 player)

LBBG 141700Z AUTO 09008KT 9999 NCD 28/19 Q1011 NOSIG

LBBG Flight Activity (Flightaware)

Listeners: 0 out of 1875 total

Burgas Approach: 125.100
Burgas Tower: 118.000

LBPD Tower (Archives)
Plovdiv, Bulgaria

Feed Status: UP
Listen in your browser - HTML5 player(in browser, HTML5)
Click here to listen with your own player(launches your MP3 player)

LBSF 141700Z AUTO 08010KT 9999 NCD 33/12 Q1013 NOSIG

LBSF Flight Activity (Flightaware)

Listeners: 0 out of 1875 total

Plovdiv Tower: 125.500
Plovdiv Tower: 133.600

LBSF ATIS
Sofia, Bulgaria

Feed Status: DOWN
Offline since: 2024-03-10 16:03:06 UTC

LBSF 141700Z AUTO 08010KT 9999 NCD 33/12 Q1013 NOSIG

Sofia ATIS: 126.680

LBSF Sofia Control East
Sofia, Bulgaria

Feed Status: DOWN
Offline since: 2023-08-29 14:53:39 UTC

LBSF 141700Z AUTO 08010KT 9999 NCD 33/12 Q1013 NOSIG

Sofia Control (East/Middle Sector): 129.100
Sofia Control (Varna Sector): 134.700

LBSF Twr/App #1
Sofia, Bulgaria

Feed Status: DOWN
Offline since: 2024-02-13 09:30:06 UTC

LBSF 141700Z AUTO 08010KT 9999 NCD 33/12 Q1013 NOSIG

Sofia Approach: 123.700
Sofia Approach: 129.900
Sofia Tower: 118.100
Sofia Tower: 120.200

LBSF Twr/App #2 (Archives)
Sofia, Bulgaria

Feed Status: UP
Listen in your browser - HTML5 player(in browser, HTML5)
Click here to listen with your own player(launches your MP3 player)

LBSF 141700Z AUTO 08010KT 9999 NCD 33/12 Q1013 NOSIG

LBSF Flight Activity (Flightaware)

Listeners: 4 out of 1875 total

Sofia Approach: 123.700
Sofia Tower: 118.100

LHBP Approach (Archives)
Budapest, Hungary

Feed Status: UP
Listen in your browser - HTML5 player(in browser, HTML5)
Click here to listen with your own player(launches your MP3 player)

LHBP 141630Z 09009KT 040V110 CAVOK 32/21 Q1011 NOSIG

LHBP Flight Activity (Flightaware)

Listeners: 4 out of 1875 total

Budapest Approach: 122.975
Budapest Approach (Upper): 123.860

LHBP Approach (Director) (Archives)
Budapest, Hungary

Feed Status: UP
Listen in your browser - HTML5 player(in browser, HTML5)
Click here to listen with your own player(launches your MP3 player)

LHBP 141630Z 09009KT 040V110 CAVOK 32/21 Q1011 NOSIG

LHBP Flight Activity (Flightaware)

Listeners: 0 out of 1875 total

Budapest Director: 119.510

LHBP ATIS (Archives)
Budapest, Hungary

Feed Status: UP
Listen in your browser - HTML5 player(in browser, HTML5)
Click here to listen with your own player(launches your MP3 player)

LHBP 141630Z 09009KT 040V110 CAVOK 32/21 Q1011 NOSIG

LHBP Flight Activity (Flightaware)

Listeners: 2 out of 1875 total

Budapest ATIS: 132.380

LHBP Clearance Delivery (Archives)
Budapest, Hungary

Feed Status: UP
Listen in your browser - HTML5 player(in browser, HTML5)
Click here to listen with your own player(launches your MP3 player)

LHBP 141630Z 09009KT 040V110 CAVOK 32/21 Q1011 NOSIG

LHBP Flight Activity (Flightaware)

Listeners: 0 out of 1875 total

Budapest Clearance Delivery: 134.540

LHBP Ground (Archives)
Budapest, Hungary

Feed Status: UP
Listen in your browser - HTML5 player(in browser, HTML5)
Click here to listen with your own player(launches your MP3 player)

LHBP 141630Z 09009KT 040V110 CAVOK 32/21 Q1011 NOSIG

LHBP Flight Activity (Flightaware)

Listeners: 0 out of 1875 total

Budapest Ground: 121.910

LHBP Info (Archives)
Budapest, Hungary

Feed Status: UP
Listen in your browser - HTML5 player(in browser, HTML5)
Click here to listen with your own player(launches your MP3 player)

LHBP 141630Z 09009KT 040V110 CAVOK 32/21 Q1011 NOSIG

LHBP Flight Activity (Flightaware)

Listeners: 1 out of 1875 total

Budapest Info: 119.350

LHBP Tower #2 (Archives)
Budapest, Hungary

Feed Status: UP
Listen in your browser - HTML5 player(in browser, HTML5)
Click here to listen with your own player(launches your MP3 player)

LHBP 141630Z 09009KT 040V110 CAVOK 32/21 Q1011 NOSIG

LHBP Flight Activity (Flightaware)

Listeners: 3 out of 1875 total

Budapest Tower: 118.100

LHBP Tower (Backup) (Archives)
Budapest, Hungary

Feed Status: UP
Listen in your browser - HTML5 player(in browser, HTML5)
Click here to listen with your own player(launches your MP3 player)

LHBP 141630Z 09009KT 040V110 CAVOK 32/21 Q1011 NOSIG

LHBP Flight Activity (Flightaware)

Listeners: 0 out of 1875 total


LHBP Twr/Info
Budapest, Hungary

Feed Status: DOWN
Offline since: 2024-07-07 10:37:23 UTC

LHBP 141630Z 09009KT 040V110 CAVOK 32/21 Q1011 NOSIG

Budapest Info: 119.350
Budapest Tower: 118.100

LHCC Control (East/West) (Archives)
Budapest, Hungary

Feed Status: UP
Listen in your browser - HTML5 player(in browser, HTML5)
Click here to listen with your own player(launches your MP3 player)

LHBP 141630Z 09009KT 040V110 CAVOK 32/21 Q1011 NOSIG

LHBP Flight Activity (Flightaware)

Listeners: 0 out of 1875 total

Budapest Control (East Low Sector): 120.375
Budapest Control (West Low Sector): 133.200

LHDC Info/Tower (Archives)
Debrecen, Hungary

Feed Status: UP
Listen in your browser - HTML5 player(in browser, HTML5)
Click here to listen with your own player(launches your MP3 player)

LHDC 141615Z AUTO 34006KT CAVOK 35/16 Q1010 NOSIG

LHDC Flight Activity (Flightaware)

Listeners: 0 out of 1875 total

Debrecen Info/Tower: 125.900

HF VOLMET 5505 EINN (Archives)
Shannon, Ireland

Feed Status: UP
Listen in your browser - HTML5 player(in browser, HTML5)
Click here to listen with your own player(launches your MP3 player)

EINN 141630Z 25002KT 9999 FEW030 BKN080 18/12 Q1010 NOSIG

EINN Flight Activity (Flightaware)

Listeners: 0 out of 1875 total

Shannon VOLMET 5505: 5.505

LJLJ Info (Archives)
Ljubljana, Slovenia

Feed Status: UP
Listen in your browser - HTML5 player(in browser, HTML5)
Click here to listen with your own player(launches your MP3 player)

LJLJ 141630Z 24006KT 210V280 9999 FEW060 SCT250 30/15 Q1012 NOSIG

LJLJ Flight Activity (Flightaware)

Listeners: 0 out of 1875 total

Ljubljana Info: 118.475

LJLJ Radar (Archives)
Ljubljana, Slovenia

Feed Status: UP
Listen in your browser - HTML5 player(in browser, HTML5)
Click here to listen with your own player(launches your MP3 player)

LJLJ 141630Z 24006KT 210V280 9999 FEW060 SCT250 30/15 Q1012 NOSIG

LJLJ Flight Activity (Flightaware)

Listeners: 1 out of 1875 total

Ljubljana Approach: 135.275

LJLJ Tower (Archives)
Ljubljana, Slovenia

Feed Status: UP
Listen in your browser - HTML5 player(in browser, HTML5)
Click here to listen with your own player(launches your MP3 player)

LJLJ 141630Z 24006KT 210V280 9999 FEW060 SCT250 30/15 Q1012 NOSIG

LJLJ Flight Activity (Flightaware)

Listeners: 2 out of 1875 total

Ljubljana Tower: 118.000

LJMB Tower (Archives)
Maribor, Slovenia

Feed Status: UP
Listen in your browser - HTML5 player(in browser, HTML5)
Click here to listen with your own player(launches your MP3 player)

LJMB 141630Z 13007KT 110V170 9999 VCTS FEW040CB FEW043 30/20 Q1012

LJMB Flight Activity (Flightaware)

Listeners: 0 out of 1875 total

Maribor Tower/Approach: 119.200

LJMS CTAF
Murska Sobota, Slovenia

Feed Status: DOWN
Offline since: 2024-02-02 11:59:40 UTC

Murska Sobota Aerodrome Radio: 123.500

LJNM CTAF (Archives)
Novo Mesto, Slovenia

Feed Status: UP
Listen in your browser - HTML5 player(in browser, HTML5)
Click here to listen with your own player(launches your MP3 player)

LJNM Flight Activity (Flightaware)

Listeners: 0 out of 1875 total

Novo Mesto Aerodrome Radio: 123.505

LJPZ Tower (Archives)
Secovlje, Slovenia

Feed Status: UP
Listen in your browser - HTML5 player(in browser, HTML5)
Click here to listen with your own player(launches your MP3 player)

LJPZ 141630Z 24004KT 200V280 CAVOK 32/13 Q1011

LJPZ Flight Activity (Flightaware)

Listeners: 1 out of 1875 total

Portoroz Tower: 124.875

LKPM Tower (Archives)
Pribram, Czech Republic

Feed Status: UP
Listen in your browser - HTML5 player(in browser, HTML5)
Click here to listen with your own player(launches your MP3 player)

LKPM Flight Activity (Flightaware)

Listeners: 0 out of 1875 total

Pribram Tower: 118.755

LKTB Gnd/Twr/Radar (Archives)
Brno, Czech Republic

Feed Status: UP
Listen in your browser - HTML5 player(in browser, HTML5)
Click here to listen with your own player(launches your MP3 player)

LKTB 141630Z 35007KT 320V020 CAVOK 28/15 Q1013 NOSIG

LKTB Flight Activity (Flightaware)

Listeners: 1 out of 1875 total

Brno Ground: 125.430
Brno Handling: 131.800
Brno Tower: 119.605
Praha Radar (Approach): 127.350

LPBJ App/Dep (Archives)
Beja, Portugal

Feed Status: UP
Listen in your browser - HTML5 player(in browser, HTML5)
Click here to listen with your own player(launches your MP3 player)

LPBJ 141600Z 27007KT 210V330 CAVOK 30/08 Q1014

LPBJ Flight Activity (Flightaware)

Listeners: 0 out of 1875 total

Beja Approach: 130.090

LPBJ Tower (Archives)
Beja, Portugal

Feed Status: UP
Listen in your browser - HTML5 player(in browser, HTML5)
Click here to listen with your own player(launches your MP3 player)

LPBJ 141600Z 27007KT 210V330 CAVOK 30/08 Q1014

LPBJ Flight Activity (Flightaware)

Listeners: 0 out of 1875 total

Beja Tower: 130.415

LPEV CTAF (Archives)
Evora, Portugal

Feed Status: UP
Listen in your browser - HTML5 player(in browser, HTML5)
Click here to listen with your own player(launches your MP3 player)

LPEV Flight Activity (Flightaware)

Listeners: 0 out of 1875 total

Evora CTAF: 122.705

LPLA Twr/App
Lajes, Portugal

Feed Status: DOWN
Offline since: 2024-06-24 09:46:05 UTC

LPLA 141600Z /////KT 9999 SCT025 24/17 Q1015

Lajes Approach: 135.000
Lajes Tower: 122.100

LPMA Approach (Archives)
Madeira, Portugal

Feed Status: UP
Listen in your browser - HTML5 player(in browser, HTML5)
Click here to listen with your own player(launches your MP3 player)

LPMA 141630Z 20007KT 120V230 9999 SCT015 BKN033 25/19 Q1017

LPMA Flight Activity (Flightaware)

Listeners: 2 out of 1875 total

Madeira Approach: 119.605

LPPD Approach (Archives)
Ponta Delgada, Portugal

Feed Status: UP
Listen in your browser - HTML5 player(in browser, HTML5)
Click here to listen with your own player(launches your MP3 player)

LPPD 141630Z 24008G18KT 9999 FEW025 24/16 Q1016

LPPD Flight Activity (Flightaware)

Listeners: 0 out of 1875 total

Ponta Delgada Approach: 119.400

LPPR Approach #1 (Archives)
Porto, Portugal

Feed Status: UP
Listen in your browser - HTML5 player(in browser, HTML5)
Click here to listen with your own player(launches your MP3 player)

LPPR 141630Z 19012KT 9999 SCT012 BKN028 21/17 Q1013

LPPR Flight Activity (Flightaware)

Listeners: 5 out of 1875 total

Porto Approach: 121.105

LPPT Approach (Archives)
Lisbon, Portugal

Feed Status: UP
Listen in your browser - HTML5 player(in browser, HTML5)
Click here to listen with your own player(launches your MP3 player)

LPPT 141630Z 24010KT 210V280 9999 FEW030 25/17 Q1014

LPPT Flight Activity (Flightaware)

Listeners: 10 out of 1875 total

Lisbon Approach: 119.105

LRBV Tower (Archives)
Brasov, Romania

Feed Status: UP
Listen in your browser - HTML5 player(in browser, HTML5)
Click here to listen with your own player(launches your MP3 player)

LRBV 141630Z 21010KT CAVOK 32/13 Q1014

LRBV Flight Activity (Flightaware)

Listeners: 1 out of 1875 total

Brasov Tower: 118.630

LRCL Twr/App #1 (Archives)
Cluj-Napoca, Romania

Feed Status: UP
Listen in your browser - HTML5 player(in browser, HTML5)
Click here to listen with your own player(launches your MP3 player)

LRCL 141630Z 06007KT CAVOK 35/15 Q1012

LRCL Flight Activity (Flightaware)

Listeners: 2 out of 1875 total

Cluj Approach: 126.425
Cluj Tower: 118.705
Napoc ACC: 127.075

LRCL Twr/App/ACC (Archives)
Cluj-Napoca, Romania

Feed Status: UP
Listen in your browser - HTML5 player(in browser, HTML5)
Click here to listen with your own player(launches your MP3 player)

LRCL 141630Z 06007KT CAVOK 35/15 Q1012

LRCL Flight Activity (Flightaware)

Listeners: 1 out of 1875 total

Cluj Approach: 126.430
Cluj Approach: 127.275
Cluj Tower: 118.705
Napoc ACC: 127.075

LROP Ground
Bucharest, Romania

Feed Status: DOWN
Offline since: 2024-07-02 17:07:22 UTC

LROP 141630Z 11010KT CAVOK 37/05 Q1010 NOSIG

Bucharest Ground: 121.855

LROP Radar
Bucharest, Romania

Feed Status: DOWN
Offline since: 2024-07-02 17:07:06 UTC

LROP 141630Z 11010KT CAVOK 37/05 Q1010 NOSIG

Bucharest Radar (Arges Mid sector): 121.175
Bucharest Radar (Arges Top Sector): 123.265
Bucharest Radar (Lomos Top Sector): 132.865

LROP Tower/Approach
Bucharest, Romania

Feed Status: DOWN
Offline since: 2024-07-02 17:07:06 UTC

LROP 141630Z 11010KT CAVOK 37/05 Q1010 NOSIG

Bucharest Approach: 119.415
Bucharest Director: 127.155
Bucharest Tower: 118.805

LROP Twr/App/Radar
Bucharest, Romania

Feed Status: DOWN
Offline since: 2024-07-02 17:07:22 UTC

LROP 141630Z 11010KT CAVOK 37/05 Q1010 NOSIG

Bucharest Approach: 119.415
Bucharest Director: 127.155
Bucharest Radar (Arges Mid sector): 121.175
Bucharest Radar (Arges Top Sector): 123.265
Bucharest Radar (Lomos Top Sector): 132.865
Bucharest Tower: 118.805

LRSB Tower/CTAF (Archives)
Sibiu, Romania

Feed Status: UP
Listen in your browser - HTML5 player(in browser, HTML5)
Click here to listen with your own player(launches your MP3 player)

LRSB 141630Z 19004KT 9999 FEW050 32/18 Q1013

LRSB Flight Activity (Flightaware)

Listeners: 0 out of 1875 total

Sibiu Tower: 121.305

LRTR Tower (Archives)
Timisoara, Romania

Feed Status: UP
Listen in your browser - HTML5 player(in browser, HTML5)
Click here to listen with your own player(launches your MP3 player)

LRTR 141630Z 20006KT CAVOK 39/09 Q1009

LRTR Flight Activity (Flightaware)

Listeners: 0 out of 1875 total

ARAD Approach: 127.250
Timisoara Tower: 120.100

LSGG Arr/Dep (Archives)
Geneva, Switzerland

Feed Status: UP
Listen in your browser - HTML5 player(in browser, HTML5)
Click here to listen with your own player(launches your MP3 player)

LSGG 141650Z AUTO 08006KT CAVOK 23/14 Q1014 NOSIG

LSGG Flight Activity (Flightaware)

Listeners: 4 out of 1875 total

Geneva Arrival: 136.255
Geneva Departure: 119.530

LSGG Arrival (Archives)
Geneva, Switzerland

Feed Status: UP
Listen in your browser - HTML5 player(in browser, HTML5)
Click here to listen with your own player(launches your MP3 player)

LSGG 141650Z AUTO 08006KT CAVOK 23/14 Q1014 NOSIG

LSGG Flight Activity (Flightaware)

Listeners: 2 out of 1875 total

Geneva Arrival: 136.255

LSGG ATIS (Archives)
Geneva, Switzerland

Feed Status: UP
Listen in your browser - HTML5 player(in browser, HTML5)
Click here to listen with your own player(launches your MP3 player)

LSGG 141650Z AUTO 08006KT CAVOK 23/14 Q1014 NOSIG

LSGG Flight Activity (Flightaware)

Listeners: 0 out of 1875 total

Geneva ATIS: 135.575

LSGG Delta (VFR) (Archives)
Geneva, Switzerland

Feed Status: UP
Listen in your browser - HTML5 player(in browser, HTML5)
Click here to listen with your own player(launches your MP3 player)

LSGG 141650Z AUTO 08006KT CAVOK 23/14 Q1014 NOSIG

LSGG Flight Activity (Flightaware)

Listeners: 1 out of 1875 total

Geneva Delta (VFR): 119.175

LSGG Departure (Archives)
Geneva, Switzerland

Feed Status: UP
Listen in your browser - HTML5 player(in browser, HTML5)
Click here to listen with your own player(launches your MP3 player)

LSGG 141650Z AUTO 08006KT CAVOK 23/14 Q1014 NOSIG

LSGG Flight Activity (Flightaware)

Listeners: 3 out of 1875 total

Geneva Departure: 119.530

LSGG Glider (Archives)
Geneva, Switzerland

Feed Status: UP
Listen in your browser - HTML5 player(in browser, HTML5)
Click here to listen with your own player(launches your MP3 player)

LSGG 141650Z AUTO 08006KT CAVOK 23/14 Q1014 NOSIG

LSGG Flight Activity (Flightaware)

Listeners: 0 out of 1875 total

Geneva Glider: 124.750

LSGG Info (VFR) (Archives)
Geneva, Switzerland

Feed Status: UP
Listen in your browser - HTML5 player(in browser, HTML5)
Click here to listen with your own player(launches your MP3 player)

LSGG 141650Z AUTO 08006KT CAVOK 23/14 Q1014 NOSIG

LSGG Flight Activity (Flightaware)

Listeners: 4 out of 1875 total

Geneva Information (VFR): 126.350

LSGG Radar Ini N/E/S (Archives)
Geneva, Switzerland

Feed Status: UP
Listen in your browser - HTML5 player(in browser, HTML5)
Click here to listen with your own player(launches your MP3 player)

LSGG 141650Z AUTO 08006KT CAVOK 23/14 Q1014 NOSIG

LSGG Flight Activity (Flightaware)

Listeners: 0 out of 1875 total

Geneva Radar Initial East: 128.905
Geneva Radar Initial North: 134.030
Geneva Radar Initial South: 124.225

LSGG Radar Initial East (Archives)
Geneva, Switzerland

Feed Status: UP
Listen in your browser - HTML5 player(in browser, HTML5)
Click here to listen with your own player(launches your MP3 player)

LSGG 141650Z AUTO 08006KT CAVOK 23/14 Q1014 NOSIG

LSGG Flight Activity (Flightaware)

Listeners: 0 out of 1875 total

Geneva Radar Initial East: 128.905

LSGG Radar Initial North (Archives)
Geneva, Switzerland

Feed Status: UP
Listen in your browser - HTML5 player(in browser, HTML5)
Click here to listen with your own player(launches your MP3 player)

LSGG 141650Z AUTO 08006KT CAVOK 23/14 Q1014 NOSIG

LSGG Flight Activity (Flightaware)

Listeners: 0 out of 1875 total

Geneva Radar Initial North: 134.030

LSGG Radar Initial South (Archives)
Geneva, Switzerland

Feed Status: UP
Listen in your browser - HTML5 player(in browser, HTML5)
Click here to listen with your own player(launches your MP3 player)

LSGG 141650Z AUTO 08006KT CAVOK 23/14 Q1014 NOSIG

LSGG Flight Activity (Flightaware)

Listeners: 2 out of 1875 total

Geneva Radar Initial South: 124.225

LSGG Radar L1 250-280 (Archives)
Geneva, Switzerland

Feed Status: UP
Listen in your browser - HTML5 player(in browser, HTML5)
Click here to listen with your own player(launches your MP3 player)

LSGG 141650Z AUTO 08006KT CAVOK 23/14 Q1014 NOSIG

LSGG Flight Activity (Flightaware)

Listeners: 0 out of 1875 total

Geneva Radar L1 FL250-280: 134.850

LSGG Radar L1/L2/L3/L4/L5 (Archives)
Geneva, Switzerland

Feed Status: UP
Listen in your browser - HTML5 player(in browser, HTML5)
Click here to listen with your own player(launches your MP3 player)

LSGG 141650Z AUTO 08006KT CAVOK 23/14 Q1014 NOSIG

LSGG Flight Activity (Flightaware)

Listeners: 3 out of 1875 total

Geneva Radar L1 FL250-280: 134.850
Geneva Radar L2 FL290-310: 126.050
Geneva Radar L3 FL320-330: 134.315
Geneva Radar L3 FL320-330: 136.015
Geneva Radar L5 FL360-370: 128.155

LSGG Radar L2 290-310 (Archives)
Geneva, Switzerland

Feed Status: UP
Listen in your browser - HTML5 player(in browser, HTML5)
Click here to listen with your own player(launches your MP3 player)

LSGG 141650Z AUTO 08006KT CAVOK 23/14 Q1014 NOSIG

LSGG Flight Activity (Flightaware)

Listeners: 1 out of 1875 total

Geneva Radar L2 FL290-310: 126.050

LSGG Radar L3 320-330 (Archives)
Geneva, Switzerland

Feed Status: UP
Listen in your browser - HTML5 player(in browser, HTML5)
Click here to listen with your own player(launches your MP3 player)

LSGG 141650Z AUTO 08006KT CAVOK 23/14 Q1014 NOSIG

LSGG Flight Activity (Flightaware)

Listeners: 0 out of 1875 total

Geneva Radar L3 FL320-330: 134.315

LSGG Radar L4 340-350 (Archives)
Geneva, Switzerland

Feed Status: UP
Listen in your browser - HTML5 player(in browser, HTML5)
Click here to listen with your own player(launches your MP3 player)

LSGG 141650Z AUTO 08006KT CAVOK 23/14 Q1014 NOSIG

LSGG Flight Activity (Flightaware)

Listeners: 0 out of 1875 total

Geneva Radar L4 FL340-350: 136.015

LSGG Radar L5 360-370 (Archives)
Geneva, Switzerland

Feed Status: UP
Listen in your browser - HTML5 player(in browser, HTML5)
Click here to listen with your own player(launches your MP3 player)

LSGG 141650Z AUTO 08006KT CAVOK 23/14 Q1014 NOSIG

LSGG Flight Activity (Flightaware)

Listeners: 0 out of 1875 total

Geneva Radar L5 FL360-370: 128.155

LSGS Gnd/Twr/App (Archives)
Sion, Switzerland

Feed Status: UP
Listen in your browser - HTML5 player(in browser, HTML5)
Click here to listen with your own player(launches your MP3 player)

LSGS 141650Z VRB02KT 9999 FEW120 BKN150 25/17 Q1013

LSGS Flight Activity (Flightaware)

Listeners: 0 out of 1875 total

Alpine Jet Service Handling: 131.675
Sion Airport Handling: 131.475
Sion Approach (IFR ARR MIL OFF): 126.825
Sion Ground: 121.700
Sion Tower: 118.275

LSMD Tower (Archives)
Dubendorf, Switzerland

Feed Status: UP
Listen in your browser - HTML5 player(in browser, HTML5)
Click here to listen with your own player(launches your MP3 player)

LSZH 141650Z VRB02KT CAVOK 24/12 Q1015 NOSIG

LSZH Flight Activity (Flightaware)

Listeners: 1 out of 1875 total

Dubendorf Tower: 118.975

LSMP Arrival (Archives)
Payerne, Switzerland

Feed Status: UP
Listen in your browser - HTML5 player(in browser, HTML5)
Click here to listen with your own player(launches your MP3 player)

LSMP 141650Z AUTO VRB02KT 9999NDV BKN096 23/15 Q1014 RMK

LSMP Flight Activity (Flightaware)

Listeners: 0 out of 1875 total

Payerne Arrival: 136.350

LSMP Arrival/Tower (Archives)
Payerne, Switzerland

Feed Status: UP
Listen in your browser - HTML5 player(in browser, HTML5)
Click here to listen with your own player(launches your MP3 player)

LSMP 141650Z AUTO VRB02KT 9999NDV BKN096 23/15 Q1014 RMK

LSMP Flight Activity (Flightaware)

Listeners: 1 out of 1875 total

Payerne Arrival: 136.350
Payerne Tower: 128.675

LSMP Tower (Archives)
Payerne, Switzerland

Feed Status: UP
Listen in your browser - HTML5 player(in browser, HTML5)
Click here to listen with your own player(launches your MP3 player)

LSMP 141650Z AUTO VRB02KT 9999NDV BKN096 23/15 Q1014 RMK

LSMP Flight Activity (Flightaware)

Listeners: 0 out of 1875 total

Payerne Tower: 128.675

LSMV Heli Tower
Davos, Switzerland

Feed Status: DOWN
Offline since: 2024-03-27 09:38:06 UTC

LSMV Tower: 120.425

LSPM AFIS
Ambri, Switzerland

Feed Status: DOWN
Offline since: 2024-07-02 02:26:40 UTC

Ambri AFIS: 118.525

LSZA Tower (Archives)
Agno, Switzerland

Feed Status: UP
Listen in your browser - HTML5 player(in browser, HTML5)
Click here to listen with your own player(launches your MP3 player)

LSZA 141650Z VRB03KT 9999 FEW060 29/19 Q1013

LSZA Flight Activity (Flightaware)

Listeners: 0 out of 1875 total

Lugano Tower: 120.250

LSZB App/Dep (Archives)
Bern, Switzerland

Feed Status: UP
Listen in your browser - HTML5 player(in browser, HTML5)
Click here to listen with your own player(launches your MP3 player)

LSZB 141650Z VRB02KT 9999 FEW100 BKN130 BKN140 24/16 Q1014

LSZB Flight Activity (Flightaware)

Listeners: 0 out of 1875 total

Bern Arrival/Departure: 127.325

LSZB ATIS (Archives)
Bern, Switzerland

Feed Status: UP
Listen in your browser - HTML5 player(in browser, HTML5)
Click here to listen with your own player(launches your MP3 player)

LSZB 141650Z VRB02KT 9999 FEW100 BKN130 BKN140 24/16 Q1014

LSZB Flight Activity (Flightaware)

Listeners: 0 out of 1875 total

Bern ATIS: 125.130

LSZB Clearance Delivery (Archives)
Bern, Switzerland

Feed Status: UP
Listen in your browser - HTML5 player(in browser, HTML5)
Click here to listen with your own player(launches your MP3 player)

LSZB 141650Z VRB02KT 9999 FEW100 BKN130 BKN140 24/16 Q1014

LSZB Flight Activity (Flightaware)

Listeners: 0 out of 1875 total

Bern Clearance Delivery: 121.905

LSZB Del/Twr/App/Dep (Archives)
Bern, Switzerland

Feed Status: UP
Listen in your browser - HTML5 player(in browser, HTML5)
Click here to listen with your own player(launches your MP3 player)

LSZB 141650Z VRB02KT 9999 FEW100 BKN130 BKN140 24/16 Q1014

LSZB Flight Activity (Flightaware)

Listeners: 1 out of 1875 total

Bern Arrival/Departure: 127.325
Bern Clearance Delivery: 121.905
Bern Tower: 121.025

LSZB Tower (Archives)
Bern, Switzerland

Feed Status: UP
Listen in your browser - HTML5 player(in browser, HTML5)
Click here to listen with your own player(launches your MP3 player)

LSZB 141650Z VRB02KT 9999 FEW100 BKN130 BKN140 24/16 Q1014

LSZB Flight Activity (Flightaware)

Listeners: 0 out of 1875 total

Bern Tower: 121.025

LSZB Twr/App/Dep (Archives)
Bern, Switzerland

Feed Status: UP
Listen in your browser - HTML5 player(in browser, HTML5)
Click here to listen with your own player(launches your MP3 player)

LSZB 141650Z VRB02KT 9999 FEW100 BKN130 BKN140 24/16 Q1014

LSZB Flight Activity (Flightaware)

Listeners: 1 out of 1875 total

Bern Arrival/Departure: 127.325
Bern Tower: 121.025

LSZG Tower (Archives)
Grenchen, Switzerland

Feed Status: UP
Listen in your browser - HTML5 player(in browser, HTML5)
Click here to listen with your own player(launches your MP3 player)

LSZG 141650Z VRB03KT CAVOK 23/16 Q1014

LSZG Flight Activity (Flightaware)

Listeners: 1 out of 1875 total

Grenchen Tower: 120.100

LSZH Approach (East) (Archives)
Zurich, Switzerland

Feed Status: UP
Listen in your browser - HTML5 player(in browser, HTML5)
Click here to listen with your own player(launches your MP3 player)

LSZH 141650Z VRB02KT CAVOK 24/12 Q1015 NOSIG

LSZH Flight Activity (Flightaware)

Listeners: 0 out of 1875 total

Zurich Approach (East): 135.230

LSZH Apron (North) (Archives)
Zurich, Switzerland

Feed Status: UP
Listen in your browser - HTML5 player(in browser, HTML5)
Click here to listen with your own player(launches your MP3 player)

LSZH 141650Z VRB02KT CAVOK 24/12 Q1015 NOSIG

LSZH Flight Activity (Flightaware)

Listeners: 0 out of 1875 total

Zurich Apron (North): 121.855

LSZH Apron (South) (Archives)
Zurich, Switzerland

Feed Status: UP
Listen in your browser - HTML5 player(in browser, HTML5)
Click here to listen with your own player(launches your MP3 player)

LSZH 141650Z VRB02KT CAVOK 24/12 Q1015 NOSIG

LSZH Flight Activity (Flightaware)

Listeners: 1 out of 1875 total

Zurich Apron (South): 121.755

LSZH Clearance Delivery (Archives)
Zurich, Switzerland

Feed Status: UP
Listen in your browser - HTML5 player(in browser, HTML5)
Click here to listen with your own player(launches your MP3 player)

LSZH 141650Z VRB02KT CAVOK 24/12 Q1015 NOSIG

LSZH Flight Activity (Flightaware)

Listeners: 3 out of 1875 total

Zurich Clearance Delivery: 121.925

LSZH Ground (Archives)
Zurich, Switzerland

Feed Status: UP
Listen in your browser - HTML5 player(in browser, HTML5)
Click here to listen with your own player(launches your MP3 player)

LSZH 141650Z VRB02KT CAVOK 24/12 Q1015 NOSIG

LSZH Flight Activity (Flightaware)

Listeners: 0 out of 1875 total

Zurich Ground: 121.905

LSZH Radar East 133.905 (Archives)
Zurich, Switzerland

Feed Status: UP
Listen in your browser - HTML5 player(in browser, HTML5)
Click here to listen with your own player(launches your MP3 player)

LSZH 141650Z VRB02KT CAVOK 24/12 Q1015 NOSIG

LSZH Flight Activity (Flightaware)

Listeners: 2 out of 1875 total

Zurich Radar (Below FL240 East): 133.905

LSZH Radar M1 133.050 (Archives)
Zurich, Switzerland

Feed Status: UP
Listen in your browser - HTML5 player(in browser, HTML5)
Click here to listen with your own player(launches your MP3 player)

LSZH 141650Z VRB02KT CAVOK 24/12 Q1015 NOSIG

LSZH Flight Activity (Flightaware)

Listeners: 1 out of 1875 total

Zurich Radar M1: 133.050

LSZH Radar M2 133.405 (Archives)
Zurich, Switzerland

Feed Status: UP
Listen in your browser - HTML5 player(in browser, HTML5)
Click here to listen with your own player(launches your MP3 player)

LSZH 141650Z VRB02KT CAVOK 24/12 Q1015 NOSIG

LSZH Flight Activity (Flightaware)

Listeners: 0 out of 1875 total

Zurich Radar M2: 133.405

LSZH Radar M3 132.815 (Archives)
Zurich, Switzerland

Feed Status: UP
Listen in your browser - HTML5 player(in browser, HTML5)
Click here to listen with your own player(launches your MP3 player)

LSZH 141650Z VRB02KT CAVOK 24/12 Q1015 NOSIG

LSZH Flight Activity (Flightaware)

Listeners: 0 out of 1875 total

Zurich Radar: 132.815

LSZH Radar M4 134.605 (Archives)
Zurich, Switzerland

Feed Status: UP
Listen in your browser - HTML5 player(in browser, HTML5)
Click here to listen with your own player(launches your MP3 player)

LSZH 141650Z VRB02KT CAVOK 24/12 Q1015 NOSIG

LSZH Flight Activity (Flightaware)

Listeners: 0 out of 1875 total

Zurich Radar M4: 134.605

LSZH Radar M5 132.835 (Archives)
Zurich, Switzerland

Feed Status: UP
Listen in your browser - HTML5 player(in browser, HTML5)
Click here to listen with your own player(launches your MP3 player)

LSZH 141650Z VRB02KT CAVOK 24/12 Q1015 NOSIG

LSZH Flight Activity (Flightaware)

Listeners: 1 out of 1875 total

Zurich Radar M5: 132.835

LSZH Radar M6 133.690 (Archives)
Zurich, Switzerland

Feed Status: UP
Listen in your browser - HTML5 player(in browser, HTML5)
Click here to listen with your own player(launches your MP3 player)

LSZH 141650Z VRB02KT CAVOK 24/12 Q1015 NOSIG

LSZH Flight Activity (Flightaware)

Listeners: 0 out of 1875 total

Zurich Radar M6: 133.690

LSZH Radar North 136.155 (Archives)
Zurich, Switzerland

Feed Status: UP
Listen in your browser - HTML5 player(in browser, HTML5)
Click here to listen with your own player(launches your MP3 player)

LSZH 141650Z VRB02KT CAVOK 24/12 Q1015 NOSIG

LSZH Flight Activity (Flightaware)

Listeners: 0 out of 1875 total

Zurich Radar (Below FL240 North): 136.155

LSZH Radar West 135.680 (Archives)
Zurich, Switzerland

Feed Status: UP
Listen in your browser - HTML5 player(in browser, HTML5)
Click here to listen with your own player(launches your MP3 player)

LSZH 141650Z VRB02KT CAVOK 24/12 Q1015 NOSIG

LSZH Flight Activity (Flightaware)

Listeners: 0 out of 1875 total


LSZH Tower (Archives)
Zurich, Switzerland

Feed Status: UP
Listen in your browser - HTML5 player(in browser, HTML5)
Click here to listen with your own player(launches your MP3 player)

LSZH 141650Z VRB02KT CAVOK 24/12 Q1015 NOSIG

LSZH Flight Activity (Flightaware)

Listeners: 23 out of 1875 total

Zurich Tower: 118.100

LSZH Tower (14/32) (Archives)
Zurich, Switzerland

Feed Status: UP
Listen in your browser - HTML5 player(in browser, HTML5)
Click here to listen with your own player(launches your MP3 player)

LSZH 141650Z VRB02KT CAVOK 24/12 Q1015 NOSIG

LSZH Flight Activity (Flightaware)

Listeners: 2 out of 1875 total

Zurich Tower (Rwy 14 App/32 Takeoff): 120.225

LSZH Twr/Gnd (backup) (Archives)
Zurich, Switzerland

Feed Status: UP
Listen in your browser - HTML5 player(in browser, HTML5)
Click here to listen with your own player(launches your MP3 player)

LSZH 141650Z VRB02KT CAVOK 24/12 Q1015 NOSIG

LSZH Flight Activity (Flightaware)

Listeners: 0 out of 1875 total

Zurich Twr/Gnd (backup): 119.700

LSZL Tower (Archives)
Locarno, Switzerland

Feed Status: UP
Listen in your browser - HTML5 player(in browser, HTML5)
Click here to listen with your own player(launches your MP3 player)

LSZL 141650Z AUTO VRB02KT 9999NDV NCD 28/20 Q1012 RMK

LSZL Flight Activity (Flightaware)

Listeners: 1 out of 1875 total


LSZN CTAF (Archives)
Zurich, Switzerland

Feed Status: UP
Listen in your browser - HTML5 player(in browser, HTML5)
Click here to listen with your own player(launches your MP3 player)

LSZN Flight Activity (Flightaware)

Listeners: 0 out of 1875 total

Hausen am Albis CTAF: 130.755

LSZR Tower (Archives)
Altenrhein, Switzerland

Feed Status: UP
Listen in your browser - HTML5 player(in browser, HTML5)
Click here to listen with your own player(launches your MP3 player)

LSZR 141650Z VRB02KT CAVOK 24/13 Q1015 RMK J

LSZR Flight Activity (Flightaware)

Listeners: 1 out of 1875 total

Altenrhein Tower: 135.425

LSZW CTAF (Archives)
Thun, Switzerland

Feed Status: UP
Listen in your browser - HTML5 player(in browser, HTML5)
Click here to listen with your own player(launches your MP3 player)

LSZW Flight Activity (Flightaware)

Listeners: 0 out of 1875 total

Thun CTAF/Info: 123.250

LTBA Gnd/Twr/App (Archives)
Istanbul, Turkey

Feed Status: UP
Listen in your browser - HTML5 player(in browser, HTML5)
Click here to listen with your own player(launches your MP3 player)

LTBA 141650Z 04017KT CAVOK 29/16 Q1009

LTBA Flight Activity (Flightaware)

Listeners: 3 out of 1875 total

Istanbul Approach: 126.425
Istanbul Approach: 133.075
Istanbul Tower: 118.100
Istanbul Tower: 118.375

LTFJ Del/Gnd/Twr (Archives)
Istanbul, Turkey

Feed Status: UP
Listen in your browser - HTML5 player(in browser, HTML5)
Click here to listen with your own player(launches your MP3 player)

LTFJ 141650Z 05016KT CAVOK 27/19 Q1010 NOSIG

LTFJ Flight Activity (Flightaware)

Listeners: 0 out of 1875 total

Gokcen Clearance Delivery: 122.625
Gokcen Ground: 121.750
Gokcen Tower: 118.800
Gokcen Tower (West): 120.925
Pegasus Dispatch: 131.750

LTFM App/Dep
Istanbul, Turkey

Feed Status: DOWN
Offline since: 2024-07-14 17:26:06 UTC

LTFM 141650Z 05014KT CAVOK 27/19 Q1011 NOSIG

Yesilkoy Approach: 130.300
Yesilkoy Approach: 118.950
Yesilkoy Radar: 132.475
Yesilkoy Radar: 132.050
Yesilkoy Radar: 131.125
Yesilkoy Radar: 132.325

LTFM Gnd/Twr
Istanbul, Turkey

Feed Status: DOWN
Offline since: 2024-07-14 17:26:06 UTC

LTFM 141650Z 05014KT CAVOK 27/19 Q1011 NOSIG

Istanbul Ground : 122.600
Istanbul Ground: 124.425
Istanbul Tower: 118.075
Istanbul Tower: 122.700
Istanbul Tower: 127.500

LUKK Tower/Approach (Archives)
Chisinau, Moldova

Feed Status: UP
Listen in your browser - HTML5 player(in browser, HTML5)
Click here to listen with your own player(launches your MP3 player)

LUKK 141700Z 13003KT CAVOK 34/12 Q1012 NOSIG

LUKK Flight Activity (Flightaware)

Listeners: 0 out of 1875 total

Chisinau Approach: 133.300
Chisinau Tower: 118.100

LWSK ACC (Lower) (Archives)
Petrovec, North Macedonia, Republic of

Feed Status: UP
Listen in your browser - HTML5 player(in browser, HTML5)
Click here to listen with your own player(launches your MP3 player)

LWSK 141650Z 29003KT 250V350 CAVOK 37/20 Q1009 NOSIG

LWSK Flight Activity (Flightaware)

Listeners: 0 out of 1875 total

Skopje Control (Lower): 119.375

LWSK ACC (Upper) (Archives)
Petrovec, North Macedonia, Republic of

Feed Status: UP
Listen in your browser - HTML5 player(in browser, HTML5)
Click here to listen with your own player(launches your MP3 player)

LWSK 141650Z 29003KT 250V350 CAVOK 37/20 Q1009 NOSIG

LWSK Flight Activity (Flightaware)

Listeners: 0 out of 1875 total

Skopje Control (Upper): 120.015

LWSK Approach (Archives)
Petrovec, North Macedonia, Republic of

Feed Status: UP
Listen in your browser - HTML5 player(in browser, HTML5)
Click here to listen with your own player(launches your MP3 player)

LWSK 141650Z 29003KT 250V350 CAVOK 37/20 Q1009 NOSIG

LWSK Flight Activity (Flightaware)

Listeners: 0 out of 1875 total

Skopje Approach/Departure: 120.300

LWSK ATIS (Archives)
Petrovec, North Macedonia, Republic of

Feed Status: UP
Listen in your browser - HTML5 player(in browser, HTML5)
Click here to listen with your own player(launches your MP3 player)

LWSK 141650Z 29003KT 250V350 CAVOK 37/20 Q1009 NOSIG

LWSK Flight Activity (Flightaware)

Listeners: 0 out of 1875 total

Skopje ATIS: 130.125

LWSK Tower (Archives)
Petrovec, North Macedonia, Republic of

Feed Status: UP
Listen in your browser - HTML5 player(in browser, HTML5)
Click here to listen with your own player(launches your MP3 player)

LWSK 141650Z 29003KT 250V350 CAVOK 37/20 Q1009 NOSIG

LWSK Flight Activity (Flightaware)

Listeners: 2 out of 1875 total

Skopje Tower: 118.500

LYNI Twr/App (Archives)
Nis, Serbia

Feed Status: UP
Listen in your browser - HTML5 player(in browser, HTML5)
Click here to listen with your own player(launches your MP3 player)

LYNI 141630Z 27003KT CAVOK 35/15 Q1010 NOSIG

LYNI Flight Activity (Flightaware)

Listeners: 1 out of 1875 total

Nis Approach: 119.525
Nis Approach/Tower (Alternate): 136.075
Nis Tower: 118.950

LZIB Gnd/Twr/App (Archives)
Bratislava, Slovakia

Feed Status: UP
Listen in your browser - HTML5 player(in browser, HTML5)
Click here to listen with your own player(launches your MP3 player)

LZIB 141700Z 34006KT CAVOK 30/17 Q1012 NOSIG

LZIB Flight Activity (Flightaware)

Listeners: 2 out of 1875 total

BTS Handling: 131.850
Stefanik Ground: 120.900
Stefanik Ground: 121.700
Stefanik Radar: 134.925
Stefanik Tower: 118.300

LZKZ Gnd/Twr/App (Archives)
Kosice, Slovakia

Feed Status: UP
Listen in your browser - HTML5 player(in browser, HTML5)
Click here to listen with your own player(launches your MP3 player)

LZKZ 141700Z 03011KT 9999 -SHRA FEW015 21/18 Q1013 NOSIG

LZKZ Flight Activity (Flightaware)

Listeners: 2 out of 1875 total

Kosice Approach: 129.350
Kosice Approach (backup): 119.850
Kosice Ground: 121.700
Kosice Handling: 131.850
Kosice Tower: 120.400

LZNI CTAF (Archives)
Nitra, Slovakia

Feed Status: UP
Listen in your browser - HTML5 player(in browser, HTML5)
Click here to listen with your own player(launches your MP3 player)

LZNI Flight Activity (Flightaware)

Listeners: 1 out of 1875 total

Nitra Traffic Radio: 123.405

LZPE CTAF/UNICOM (Archives)
Prievidza, Slovakia

Feed Status: UP
Listen in your browser - HTML5 player(in browser, HTML5)
Click here to listen with your own player(launches your MP3 player)

LZPE Flight Activity (Flightaware)

Listeners: 0 out of 1875 total

Prievidza CTAF/UNICOM: 123.055

LZPP Ground/Tower (Archives)
Piestany, Slovakia

Feed Status: UP
Listen in your browser - HTML5 player(in browser, HTML5)
Click here to listen with your own player(launches your MP3 player)

LZPP 141630Z 31008KT CAVOK 30/18 Q1012

LZPP Flight Activity (Flightaware)

Listeners: 0 out of 1875 total

Piestany Ground: 121.700
Piestany Tower: 118.575

LZPT CTAF
Partizanske, Slovakia

Feed Status: DOWN
Offline since: 2023-07-03 13:40:39 UTC

Male Bielice CTAF: 123.500

URSS Gnd/Twr/App (Archives)
Sochi, Russia

Feed Status: UP
Listen in your browser - HTML5 player(in browser, HTML5)
Click here to listen with your own player(launches your MP3 player)

URSS 141630Z 27002MPS 9999 FEW050 27/24 Q1005 R02/010070 R06/010070 NOSIG RMK R06/29003MPS QFE752

URSS Flight Activity (Flightaware)

Listeners: 9 out of 1875 total

Sochi Approach: 118.300
Sochi Approach: 119.700
Sochi District (Small Aircraft): 118.500
Sochi Start: 121.200
Sochi Taxi: 119.000
Sochi Tower: 124.600

USDD Gnd/Twr/App/Control (Archives)
Salekhard, Russia

Feed Status: UP
Listen in your browser - HTML5 player(in browser, HTML5)
Click here to listen with your own player(launches your MP3 player)

USDD 150530Z 05007MPS 9999 -SHRA BKN009CB 09/07 Q1002 R04/290060 NOSIG RMK QFE746/0994

USDD Flight Activity (Flightaware)

Listeners: 0 out of 1875 total

Salekhard Control: 132.300
Salekhard Ground: 118.800
Salekhard Info: 125.200
Salekhard Krug: 120.800
Salekhard Tower: 118.600
Salekhard Transit: 131.700

UUEE Twr/App/Radar
Moscow, Russia

Feed Status: DOWN
Offline since: 2023-08-19 16:35:40 UTC

UUEE 141630Z 10005MPS CAVOK 26/19 Q1013 R06R/CLRD62 R06C/CLRD62 NOSIG

Sheremetyevo Radar (low altitude): 119.300
Sheremetyevo Radar/Arrival: 122.700
Sheremetyevo Radar/Departure: 126.600
Sheremetyevo Tower: 131.500